Simultaneous Nadir Overpasses (SNOs) Predictions

Prediction of SNOs between METOP-B and TERRA Satellite Orbit:

Table of predicted SNOs for the next 14.0 days since TLE Epoch: 1/20/2024
Index Date (METOP-B) Time (METOP-B) Lat,Lon (METOP-B) SZA (METOP-B ) Date (TERRA) Time (TERRA) Lat,Lon (TERRA) SZA (TERRA ) Distance(km) Time Diff (sec)
1 01/21/2024 02:17:08 80.53, 172.32 101.29 01/21/2024 02:17:18 80.52, 172.16 101.27 3.12 10
2 01/21/2024 03:07:47 -80.58, -19.65 78.63 01/21/2024 03:06:38 -80.58, -19.60 78.65 0.92 69
3 01/23/2024 16:47:34 80.43, -46.52 100.52 01/23/2024 16:48:40 80.43, -46.59 100.53 1.41 66
4 01/23/2024 17:38:13 -80.49, 121.53 79.40 01/23/2024 17:38:00 -80.49, 121.70 79.38 3.11 13
5 01/26/2024 08:08:39 -80.41, -97.02 80.16 01/26/2024 08:09:22 -80.42, -96.91 80.14 2.02 43
6 01/26/2024 08:59:14 80.55, 72.09 100.07 01/26/2024 08:58:39 80.55, 72.00 100.05 1.62 35
7 01/28/2024 23:29:40 80.47,-146.57 99.25 01/28/2024 23:30:00 80.47,-146.58 99.26 0.24 20
8 01/29/2024 00:20:17 -80.58, 22.19 80.58 01/29/2024 00:19:19 -80.58, 22.13 80.59 1.18 58
9 01/31/2024 14:00:51 78.95, -17.97 96.43 01/31/2024 14:02:04 78.73, -16.74 96.26 35.64 73



Historial Predications of SNOs between METOP-B and TERRA
